Time,TemperatureF,DewpointF,PressureIn,WindDirection,WindDirectionDegrees,WindSpeedMPH,WindSpeedGustMPH,Humidity,HourlyPrecipIn,Conditions,Clouds,dailyrainin,SoftwareType,DateUTC
2013-06-10 00:00:00,67.7,55.5,29.88,ESE,106,2.0,0.0,65,0.00,,OVC003,0.00,VWS V14.01,2013-06-10 04:00:00,
2013-06-10 00:01:00,67.8,55.6,29.88,ESE,106,2.0,0.0,65,0.00,,OVC003,0.00,VWS V14.01,2013-06-10 04:01:00,
2013-06-10 00:03:00,67.8,55.6,29.88,ESE,106,2.0,0.0,65,0.00,,OVC003,0.00,VWS V14.01,2013-06-10 04:03:00,
2013-06-10 00:05:00,67.7,55.5,29.88,ESE,106,2.0,0.0,65,0.00,,OVC003,0.00,VWS V14.01,2013-06-10 04:05:00,
2013-06-10 00:06:00,67.7,55.5,29.88,ESE,106,2.0,0.0,65,0.00,,OVC003,0.00,VWS V14.01,2013-06-10 04:06:00,
2013-06-10 00:08:00,67.6,55.4,29.88,ESE,106,2.0,0.0,65,0.00,,OVC003,0.00,VWS V14.01,2013-06-10 04:08:00,
2013-06-10 00:10:00,67.5,55.3,29.88,ESE,106,2.0,0.0,65,0.00,,OVC003,0.00,VWS V14.01,2013-06-10 04:10:00,
2013-06-10 00:13:00,67.5,55.3,29.88,ESE,106,2.0,0.0,65,0.00,,OVC003,0.00,VWS V14.01,2013-06-10 04:13:00,
2013-06-10 00:15:00,67.4,55.2,29.88,ESE,106,2.0,0.0,65,0.00,,OVC003,0.00,VWS V14.01,2013-06-10 04:15:00,
2013-06-10 00:18:00,67.4,55.2,29.88,ESE,106,2.0,0.0,65,0.00,,OVC003,0.00,VWS V14.01,2013-06-10 04:18:00,
2013-06-10 00:20:00,67.4,54.8,29.88,ESE,106,2.0,0.0,64,0.00,,OVC003,0.00,VWS V14.01,2013-06-10 04:20:00,
2013-06-10 00:23:00,67.4,55.2,29.88,ESE,106,2.0,0.0,65,0.00,,OVC003,0.00,VWS V14.01,2013-06-10 04:23:00,
2013-06-10 00:25:00,67.4,55.2,29.88,ESE,106,2.0,0.0,65,0.00,,OVC003,0.00,VWS V14.01,2013-06-10 04:25:00,
2013-06-10 00:28:00,67.4,54.8,29.88,ESE,106,2.0,0.0,64,0.00,,OVC003,0.00,VWS V14.01,2013-06-10 04:28:00,
2013-06-10 00:30:00,67.3,55.2,29.88,ESE,106,2.0,0.0,65,0.00,,OVC003,0.00,VWS V14.01,2013-06-10 04:30:00,
2013-06-10 00:33:00,67.3,55.2,29.88,ESE,106,2.0,0.0,65,0.00,,OVC003,0.00,VWS V14.01,2013-06-10 04:33:00,
2013-06-10 00:35:00,67.2,55.0,29.88,ESE,106,3.0,3.0,65,0.00,,OVC003,0.00,VWS V14.01,2013-06-10 04:35:00,
2013-06-10 00:38:00,67.2,55.0,29.88,ESE,106,2.0,0.0,65,0.00,,OVC003,0.00,VWS V14.01,2013-06-10 04:38:00,
2013-06-10 00:40:00,67.2,55.0,29.88,ESE,106,2.0,2.0,65,0.00,,OVC003,0.00,VWS V14.01,2013-06-10 04:40:00,
2013-06-10 00:43:00,67.2,55.0,29.88,ESE,106,2.0,2.0,65,0.00,,OVC003,0.00,VWS V14.01,2013-06-10 04:43:00,
2013-06-10 00:45:00,67.2,54.6,29.88,ESE,106,2.0,0.0,64,0.00,,OVC003,0.00,VWS V14.01,2013-06-10 04:45:00,
2013-06-10 00:49:00,67.2,55.0,29.88,ESE,106,2.0,0.0,65,0.00,,OVC003,0.00,VWS V14.01,2013-06-10 04:49:00,
2013-06-10 00:50:00,67.1,55.0,29.88,ESE,106,2.0,0.0,65,0.00,,OVC003,0.00,VWS V14.01,2013-06-10 04:50:00,
2013-06-10 00:54:00,67.1,55.0,29.88,ESE,106,2.0,0.0,65,0.00,,OVC003,0.00,VWS V14.01,2013-06-10 04:54:00,
2013-06-10 00:55:00,67.1,55.0,29.88,ESE,106,2.0,0.0,65,0.00,,OVC003,0.00,VWS V14.01,2013-06-10 04:55:00,
2013-06-10 00:59:00,67.1,55.0,29.88,ESE,106,2.0,0.0,65,0.00,,OVC003,0.00,VWS V14.01,2013-06-10 04:59:00,
2013-06-10 01:00:00,67.0,54.4,29.86,ESE,106,2.0,2.0,64,0.00,,OVC003,0.00,VWS V14.01,2013-06-10 05:00:00,
2013-06-10 01:04:00,67.0,54.4,29.86,ESE,106,2.0,2.0,64,0.00,,OVC003,0.00,VWS V14.01,2013-06-10 05:04:00,
2013-06-10 01:05:00,67.1,55.0,29.86,ESE,106,2.0,0.0,65,0.00,,OVC003,0.00,VWS V14.01,2013-06-10 05:05:00,
2013-06-10 01:09:00,67.1,55.0,29.86,ESE,106,2.0,0.0,65,0.00,,OVC003,0.00,VWS V14.01,2013-06-10 05:09:00,
2013-06-10 01:10:00,67.0,55.3,29.86,ESE,106,2.0,0.0,66,0.00,,OVC003,0.00,VWS V14.01,2013-06-10 05:10:00,
2013-06-10 01:14:00,67.0,55.3,29.86,ESE,106,2.0,0.0,66,0.00,,OVC003,0.00,VWS V14.01,2013-06-10 05:14:00,
2013-06-10 01:15:00,66.9,55.2,29.86,ESE,106,2.0,0.0,66,0.00,,OVC003,0.00,VWS V14.01,2013-06-10 05:15:00,
2013-06-10 01:19:00,66.9,55.2,29.86,ESE,106,2.0,0.0,66,0.00,,OVC003,0.00,VWS V14.01,2013-06-10 05:19:00,
2013-06-10 01:20:00,66.8,55.1,29.86,ESE,106,2.0,0.0,66,0.00,,OVC003,0.00,VWS V14.01,2013-06-10 05:20:00,
2013-06-10 01:24:00,66.8,55.1,29.86,ESE,106,2.0,0.0,66,0.00,,OVC003,0.00,VWS V14.01,2013-06-10 05:24:00,
2013-06-10 01:25:00,66.7,55.0,29.86,ESE,106,2.0,2.0,66,0.00,,OVC003,0.00,VWS V14.01,2013-06-10 05:25:00,
2013-06-10 01:29:00,66.7,55.0,29.86,ESE,106,2.0,2.0,66,0.00,,OVC003,0.00,VWS V14.01,2013-06-10 05:29:00,
2013-06-10 01:30:00,66.7,55.0,29.86,ESE,106,2.0,0.0,66,0.00,,OVC003,0.00,VWS V14.01,2013-06-10 05:30:00,
2013-06-10 01:34:00,66.7,55.0,29.86,ESE,106,2.0,0.0,66,0.00,,OVC003,0.00,VWS V14.01,2013-06-10 05:34:00,
2013-06-10 01:35:00,66.7,54.6,29.86,ESE,106,2.0,0.0,65,0.00,,OVC003,0.00,VWS V14.01,2013-06-10 05:35:00,
2013-06-10 01:39:00,66.7,54.6,29.86,ESE,106,2.0,0.0,65,0.00,,OVC003,0.00,VWS V14.01,2013-06-10 05:39:00,
2013-06-10 01:40:00,66.7,54.6,29.86,ESE,106,2.0,0.0,65,0.00,,OVC003,0.00,VWS V14.01,2013-06-10 05:40:00,
2013-06-10 01:44:00,66.7,54.6,29.86,ESE,106,2.0,0.0,65,0.00,,OVC003,0.00,VWS V14.01,2013-06-10 05:44:00,
2013-06-10 01:45:00,66.7,54.6,29.86,ESE,106,2.0,0.0,65,0.00,,OVC003,0.00,VWS V14.01,2013-06-10 05:45:00,
2013-06-10 01:49:00,66.7,54.6,29.86,ESE,106,2.0,0.0,65,0.00,,OVC003,0.00,VWS V14.01,2013-06-10 05:49:00,
2013-06-10 01:50:00,66.6,54.9,29.86,ESE,106,2.0,0.0,66,0.00,,OVC003,0.00,VWS V14.01,2013-06-10 05:50:00,
2013-06-10 01:54:00,66.6,54.9,29.86,ESE,106,2.0,0.0,66,0.00,,OVC003,0.00,VWS V14.01,2013-06-10 05:54:00,
2013-06-10 01:55:00,66.6,54.9,29.86,ESE,106,2.0,0.0,66,0.00,,OVC003,0.00,VWS V14.01,2013-06-10 05:55:00,
2013-06-10 01:59:00,66.6,54.9,29.86,ESE,106,2.0,0.0,66,0.00,,OVC003,0.00,VWS V14.01,2013-06-10 05:59:00,
2013-06-10 02:00:00,66.5,54.8,29.86,ESE,106,2.0,0.0,66,0.00,,OVC003,0.00,VWS V14.01,2013-06-10 06:00:00,
2013-06-10 02:04:00,66.5,54.8,29.86,ESE,106,2.0,0.0,66,0.00,,OVC003,0.00,VWS V14.01,2013-06-10 06:04:00,
2013-06-10 02:05:00,66.4,54.3,29.86,ESE,106,2.0,0.0,65,0.00,,OVC003,0.00,VWS V14.01,2013-06-10 06:05:00,
2013-06-10 02:09:00,66.4,54.3,29.86,ESE,106,2.0,0.0,65,0.00,,OVC003,0.00,VWS V14.01,2013-06-10 06:09:00,
2013-06-10 02:10:00,66.3,54.2,29.86,ESE,106,2.0,0.0,65,0.00,,OVC003,0.00,VWS V14.01,2013-06-10 06:10:00,
2013-06-10 02:15:00,66.3,54.2,29.86,ESE,106,2.0,0.0,65,0.00,,OVC003,0.00,VWS V14.01,2013-06-10 06:15:00,
2013-06-10 02:20:00,66.2,54.1,29.85,ESE,106,2.0,0.0,65,0.00,,OVC003,0.00,VWS V14.01,2013-06-10 06:20:00,
2013-06-10 02:25:00,66.2,54.5,29.85,ESE,106,2.0,0.0,66,0.00,,OVC003,0.00,VWS V14.01,2013-06-10 06:25:00,
2013-06-10 02:30:00,66.1,54.8,29.85,ESE,106,2.0,0.0,67,0.00,,OVC003,0.00,VWS V14.01,2013-06-10 06:30:00,
2013-06-10 02:35:00,66.0,54.7,29.85,ESE,106,2.0,0.0,67,0.00,,OVC003,0.00,VWS V14.01,2013-06-10 06:35:00,
2013-06-10 02:40:00,65.9,54.2,29.85,ESE,106,2.0,0.0,66,0.00,,OVC003,0.00,VWS V14.01,2013-06-10 06:40:00,
2013-06-10 02:45:00,65.8,54.5,29.85,ESE,106,2.0,0.0,67,0.00,,OVC003,0.00,VWS V14.01,2013-06-10 06:45:00,
2013-06-10 02:50:00,65.7,54.5,29.84,ESE,106,2.0,0.0,67,0.00,,OVC003,0.00,VWS V14.01,2013-06-10 06:50:00,
2013-06-10 02:55:00,65.6,54.4,29.84,ESE,106,2.0,0.0,67,0.00,,OVC003,0.00,VWS V14.01,2013-06-10 06:55:00,
2013-06-10 03:00:00,65.4,54.6,29.84,ESE,106,2.0,0.0,68,0.00,,OVC003,0.00,VWS V14.01,2013-06-10 07:00:00,
2013-06-10 03:05:00,65.3,54.5,29.84,ESE,106,2.0,0.0,68,0.00,,OVC003,0.00,VWS V14.01,2013-06-10 07:05:00,
2013-06-10 03:10:00,65.2,54.4,29.84,ESE,106,2.0,0.0,68,0.00,,OVC003,0.00,VWS V14.01,2013-06-10 07:10:00,
2013-06-10 03:15:00,65.2,54.8,29.84,ESE,106,2.0,0.0,69,0.00,,OVC003,0.00,VWS V14.01,2013-06-10 07:15:00,
2013-06-10 03:20:00,65.1,55.1,29.83,ESE,106,2.0,0.0,70,0.00,,OVC003,0.00,VWS V14.01,2013-06-10 07:20:00,
2013-06-10 03:25:00,65.0,55.0,29.83,ESE,106,2.0,0.0,70,0.00,,OVC003,0.00,VWS V14.01,2013-06-10 07:25:00,
2013-06-10 03:30:00,64.8,54.4,29.83,ESE,106,2.0,0.0,69,0.00,,OVC003,0.00,VWS V14.01,2013-06-10 07:30:00,
2013-06-10 03:35:00,64.8,54.8,29.83,ESE,106,2.0,0.0,70,0.00,,OVC003,0.00,VWS V14.01,2013-06-10 07:35:00,
2013-06-10 03:40:00,64.7,55.1,29.83,ESE,106,2.0,0.0,71,0.00,,OVC003,0.00,VWS V14.01,2013-06-10 07:40:00,
2013-06-10 03:45:00,64.5,55.3,29.83,ESE,106,2.0,0.0,72,0.00,,OVC003,0.00,VWS V14.01,2013-06-10 07:45:00,
2013-06-10 03:50:00,64.3,55.5,29.83,ESE,106,2.0,0.0,73,0.00,,OVC003,0.00,VWS V14.01,2013-06-10 07:50:00,
2013-06-10 03:55:00,64.1,55.7,29.83,ESE,106,2.0,0.0,74,0.00,,OVC003,0.00,VWS V14.01,2013-06-10 07:55:00,
2013-06-10 04:00:00,63.8,55.7,29.83,ESE,106,2.0,0.0,75,0.00,,OVC003,0.00,VWS V14.01,2013-06-10 08:00:00,
2013-06-10 04:05:00,63.5,55.8,29.83,ESE,106,2.0,0.0,76,0.00,,OVC003,0.00,VWS V14.01,2013-06-10 08:05:00,
2013-06-10 04:10:00,63.3,56.0,29.83,ESE,106,2.0,0.0,77,0.00,,OVC003,0.00,VWS V14.01,2013-06-10 08:10:00,
2013-06-10 04:15:00,62.8,55.8,29.82,ESE,106,2.0,0.0,78,0.00,,OVC003,0.00,VWS V14.01,2013-06-10 08:15:00,
2013-06-10 04:16:00,63.0,56.0,29.83,ESE,106,2.0,0.0,78,0.00,,OVC003,0.00,VWS V14.01,2013-06-10 08:16:00,
2013-06-10 04:20:00,62.6,55.7,29.82,ESE,106,2.0,0.0,78,0.00,,OVC003,0.00,VWS V14.01,2013-06-10 08:20:00,
2013-06-10 04:21:00,62.8,55.8,29.82,ESE,106,2.0,0.0,78,0.00,,OVC003,0.00,VWS V14.01,2013-06-10 08:21:00,
2013-06-10 04:25:00,62.4,55.8,29.82,ESE,106,2.0,0.0,79,0.00,,OVC003,0.00,VWS V14.01,2013-06-10 08:25:00,
2013-06-10 04:26:00,62.5,55.6,29.82,ESE,106,2.0,0.0,78,0.00,,OVC003,0.00,VWS V14.01,2013-06-10 08:26:00,
2013-06-10 04:30:00,62.3,55.7,29.82,ESE,106,2.0,0.0,79,0.00,,OVC003,0.00,VWS V14.01,2013-06-10 08:30:00,
2013-06-10 04:31:00,62.4,55.8,29.82,ESE,106,2.0,0.0,79,0.00,,OVC003,0.00,VWS V14.01,2013-06-10 08:31:00,
2013-06-10 04:35:00,62.3,56.1,29.82,ESE,106,2.0,0.0,80,0.00,,OVC003,0.00,VWS V14.01,2013-06-10 08:35:00,
2013-06-10 04:36:00,62.3,55.7,29.82,ESE,106,2.0,0.0,79,0.00,,OVC003,0.00,VWS V14.01,2013-06-10 08:36:00,
2013-06-10 04:40:00,62.1,55.5,29.82,ESE,106,2.0,0.0,79,0.00,,OVC003,0.00,VWS V14.01,2013-06-10 08:40:00,
2013-06-10 04:41:00,62.2,56.0,29.82,ESE,106,2.0,0.0,80,0.00,,OVC003,0.00,VWS V14.01,2013-06-10 08:41:00,
2013-06-10 04:45:00,62.0,55.4,29.82,ESE,106,2.0,0.0,79,0.00,,OVC003,0.00,VWS V14.01,2013-06-10 08:45:00,
2013-06-10 04:46:00,62.0,55.4,29.82,ESE,106,2.0,0.0,79,0.00,,OVC003,0.00,VWS V14.01,2013-06-10 08:46:00,
2013-06-10 04:50:00,61.9,55.7,29.82,ESE,106,2.0,0.0,80,0.00,,OVC003,0.00,VWS V14.01,2013-06-10 08:50:00,
2013-06-10 04:51:00,62.0,55.4,29.82,ESE,106,2.0,0.0,79,0.00,,OVC003,0.00,VWS V14.01,2013-06-10 08:51:00,
2013-06-10 04:55:00,61.8,55.6,29.82,ESE,106,2.0,2.0,80,0.00,,OVC003,0.00,VWS V14.01,2013-06-10 08:55:00,
2013-06-10 04:56:00,61.8,55.6,29.82,ESE,106,2.0,2.0,80,0.00,,OVC003,0.00,VWS V14.01,2013-06-10 08:56:00,
2013-06-10 05:00:00,61.7,55.8,29.82,ESE,106,2.0,0.0,81,0.00,,OVC003,0.00,VWS V14.01,2013-06-10 09:00:00,
2013-06-10 05:01:00,61.8,55.6,29.82,ESE,106,2.0,0.0,80,0.00,,OVC003,0.00,VWS V14.01,2013-06-10 09:01:00,
2013-06-10 05:05:00,61.7,55.8,29.82,ESE,106,2.0,0.0,81,0.00,,OVC003,0.00,VWS V14.01,2013-06-10 09:05:00,
2013-06-10 05:06:00,61.7,55.8,29.82,ESE,106,2.0,0.0,81,0.00,,OVC003,0.00,VWS V14.01,2013-06-10 09:06:00,
2013-06-10 05:10:00,61.6,56.1,29.82,ESE,106,2.0,0.0,82,0.00,,OVC003,0.00,VWS V14.01,2013-06-10 09:10:00,
2013-06-10 05:11:00,61.7,55.8,29.82,ESE,106,2.0,0.0,81,0.00,,OVC003,0.00,VWS V14.01,2013-06-10 09:11:00,
2013-06-10 05:15:00,61.6,56.1,29.81,ESE,106,2.0,0.0,82,0.00,,OVC003,0.00,VWS V14.01,2013-06-10 09:15:00,
2013-06-10 05:16:00,61.6,56.1,29.82,ESE,106,2.0,0.0,82,0.00,,OVC003,0.00,VWS V14.01,2013-06-10 09:16:00,
2013-06-10 05:20:00,61.6,56.1,29.81,ESE,106,2.0,0.0,82,0.00,,OVC003,0.00,VWS V14.01,2013-06-10 09:20:00,
2013-06-10 05:22:00,61.6,56.1,29.81,ESE,106,2.0,0.0,82,0.00,,OVC003,0.00,VWS V14.01,2013-06-10 09:22:00,
2013-06-10 05:25:00,61.5,56.3,29.81,ESE,106,2.0,0.0,83,0.00,,OVC003,0.00,VWS V14.01,2013-06-10 09:25:00,
2013-06-10 05:27:00,61.5,56.3,29.81,ESE,106,2.0,0.0,83,0.00,,OVC003,0.00,VWS V14.01,2013-06-10 09:27:00,
2013-06-10 05:30:00,61.4,56.2,29.81,ESE,106,2.0,0.0,83,0.00,,OVC003,0.00,VWS V14.01,2013-06-10 09:30:00,
2013-06-10 05:32:00,61.4,56.2,29.81,ESE,106,2.0,0.0,83,0.00,,OVC003,0.00,VWS V14.01,2013-06-10 09:32:00,
2013-06-10 05:35:00,61.2,56.7,29.81,ESE,106,2.0,0.0,85,0.00,,OVC003,0.00,VWS V14.01,2013-06-10 09:35:00,
2013-06-10 05:37:00,61.2,56.3,29.81,ESE,106,2.0,0.0,84,0.00,,OVC003,0.00,VWS V14.01,2013-06-10 09:37:00,
2013-06-10 05:40:00,61.0,56.5,29.81,ESE,106,2.0,0.0,85,0.00,,OVC003,0.00,VWS V14.01,2013-06-10 09:40:00,
2013-06-10 05:42:00,61.1,56.6,29.81,ESE,106,2.0,0.0,85,0.00,,OVC003,0.00,VWS V14.01,2013-06-10 09:42:00,
2013-06-10 05:45:00,60.8,56.6,29.81,ESE,106,2.0,0.0,86,0.00,,OVC003,0.00,VWS V14.01,2013-06-10 09:45:00,
2013-06-10 05:47:00,60.9,56.4,29.81,ESE,106,2.0,0.0,85,0.00,,OVC003,0.00,VWS V14.01,2013-06-10 09:47:00,
2013-06-10 05:50:00,60.7,56.5,29.81,ESE,106,2.0,0.0,86,0.00,,OVC003,0.00,VWS V14.01,2013-06-10 09:50:00,
2013-06-10 05:52:00,60.7,56.5,29.81,ESE,106,2.0,0.0,86,0.00,,OVC003,0.00,VWS V14.01,2013-06-10 09:52:00,
2013-06-10 05:55:00,60.4,56.5,29.81,ESE,106,2.0,0.0,87,0.00,,OVC003,0.00,VWS V14.01,2013-06-10 09:55:00,
2013-06-10 05:57:00,60.5,56.3,29.81,ESE,106,2.0,0.0,86,0.00,,OVC003,0.00,VWS V14.01,2013-06-10 09:57:00,
2013-06-10 06:00:00,60.3,56.4,29.81,ESE,106,2.0,0.0,87,0.00,,OVC003,0.00,VWS V14.01,2013-06-10 10:00:00,
2013-06-10 06:02:00,60.3,56.4,29.81,ESE,106,2.0,0.0,87,0.00,,OVC003,0.00,VWS V14.01,2013-06-10 10:02:00,
2013-06-10 06:05:00,60.1,56.2,29.81,ESE,106,2.0,0.0,87,0.00,,OVC003,0.00,VWS V14.01,2013-06-10 10:05:00,
2013-06-10 06:07:00,60.2,56.3,29.81,ESE,106,2.0,0.0,87,0.00,,OVC003,0.00,VWS V14.01,2013-06-10 10:07:00,
2013-06-10 06:10:00,59.9,56.3,29.81,ESE,106,2.0,0.0,88,0.00,,OVC003,0.00,VWS V14.01,2013-06-10 10:10:00,
2013-06-10 06:12:00,60.0,56.1,29.81,ESE,106,2.0,0.0,87,0.00,,OVC003,0.00,VWS V14.01,2013-06-10 10:12:00,
2013-06-10 06:15:00,59.7,56.2,29.80,ESE,106,2.0,0.0,88,0.00,,OVC003,0.00,VWS V14.01,2013-06-10 10:15:00,
2013-06-10 06:17:00,59.8,56.2,29.81,ESE,106,2.0,0.0,88,0.00,,OVC003,0.00,VWS V14.01,2013-06-10 10:17:00,
2013-06-10 06:20:00,59.5,56.0,29.80,ESE,106,2.0,0.0,88,0.00,,OVC003,0.00,VWS V14.01,2013-06-10 10:20:00,
2013-06-10 06:22:00,59.6,56.0,29.80,ESE,106,2.0,0.0,88,0.00,,OVC003,0.00,VWS V14.01,2013-06-10 10:22:00,
2013-06-10 06:25:00,59.5,56.3,29.80,ESE,106,2.0,0.0,89,0.00,,OVC003,0.00,VWS V14.01,2013-06-10 10:25:00,
2013-06-10 06:28:00,59.5,56.3,29.80,ESE,106,2.0,0.0,89,0.00,,OVC003,0.00,VWS V14.01,2013-06-10 10:28:00,
2013-06-10 06:30:00,59.4,56.2,29.81,ESE,106,2.0,0.0,89,0.00,,OVC003,0.00,VWS V14.01,2013-06-10 10:30:00,
2013-06-10 06:33:00,59.4,56.2,29.80,ESE,106,2.0,0.0,89,0.00,,OVC003,0.00,VWS V14.01,2013-06-10 10:33:00,
2013-06-10 06:35:00,59.3,56.1,29.81,ESE,106,2.0,0.0,89,0.00,,OVC003,0.00,VWS V14.01,2013-06-10 10:35:00,
2013-06-10 06:38:00,59.3,56.1,29.81,ESE,106,2.0,0.0,89,0.00,,OVC003,0.00,VWS V14.01,2013-06-10 10:38:00,
2013-06-10 06:40:00,59.1,56.2,29.81,ESE,106,2.0,0.0,90,0.00,,OVC003,0.00,VWS V14.01,2013-06-10 10:40:00,
2013-06-10 06:43:00,59.1,55.9,29.81,ESE,106,2.0,0.0,89,0.00,,OVC003,0.00,VWS V14.01,2013-06-10 10:43:00,
2013-06-10 06:45:00,59.0,56.1,29.80,ESE,106,2.0,0.0,90,0.00,,OVC003,0.00,VWS V14.01,2013-06-10 10:45:00,
2013-06-10 06:48:00,59.0,56.1,29.81,ESE,106,2.0,0.0,90,0.00,,OVC003,0.00,VWS V14.01,2013-06-10 10:48:00,
2013-06-10 06:50:00,59.0,56.1,29.80,ESE,106,2.0,0.0,90,0.00,,OVC003,0.00,VWS V14.01,2013-06-10 10:50:00,
2013-06-10 06:53:00,59.0,56.1,29.80,ESE,106,2.0,0.0,90,0.00,,OVC003,0.00,VWS V14.01,2013-06-10 10:53:00,
2013-06-10 06:55:00,59.0,56.1,29.80,ESE,106,2.0,0.0,90,0.00,,OVC003,0.00,VWS V14.01,2013-06-10 10:55:00,
2013-06-10 06:58:00,59.0,56.1,29.80,ESE,106,2.0,0.0,90,0.00,,OVC003,0.00,VWS V14.01,2013-06-10 10:58:00,
2013-06-10 07:00:00,59.1,56.5,29.79,ESE,106,2.0,0.0,91,0.00,,OVC003,0.00,VWS V14.01,2013-06-10 11:00:00,
2013-06-10 07:03:00,59.1,56.5,29.80,ESE,106,2.0,0.0,91,0.00,,OVC003,0.00,VWS V14.01,2013-06-10 11:03:00,
2013-06-10 07:05:00,59.3,56.7,29.79,ESE,106,2.0,0.0,91,0.00,,OVC003,0.00,VWS V14.01,2013-06-10 11:05:00,
2013-06-10 07:08:00,59.2,56.6,29.79,ESE,106,2.0,0.0,91,0.00,,OVC003,0.00,VWS V14.01,2013-06-10 11:08:00,
2013-06-10 07:10:00,59.4,56.8,29.79,ESE,106,2.0,0.0,91,0.00,,OVC003,0.00,VWS V14.01,2013-06-10 11:10:00,
2013-06-10 07:13:00,59.3,56.7,29.79,ESE,106,2.0,0.0,91,0.00,,OVC003,0.00,VWS V14.01,2013-06-10 11:13:00,
2013-06-10 07:15:00,59.5,56.9,29.79,ESE,106,2.0,0.0,91,0.00,,OVC003,0.00,VWS V14.01,2013-06-10 11:15:00,
2013-06-10 07:18:00,59.4,56.8,29.79,ESE,106,2.0,0.0,91,0.00,,OVC003,0.00,VWS V14.01,2013-06-10 11:18:00,
2013-06-10 07:20:00,59.5,56.9,29.79,ESE,106,2.0,0.0,91,0.00,,OVC003,0.00,VWS V14.01,2013-06-10 11:20:00,
2013-06-10 07:23:00,59.5,56.9,29.79,ESE,106,2.0,0.0,91,0.00,,OVC003,0.00,VWS V14.01,2013-06-10 11:23:00,
2013-06-10 07:25:00,59.6,57.3,29.79,ESE,106,2.0,0.0,92,0.00,,OVC003,0.00,VWS V14.01,2013-06-10 11:25:00,
2013-06-10 07:28:00,59.6,57.0,29.79,ESE,106,2.0,0.0,91,0.00,,OVC003,0.00,VWS V14.01,2013-06-10 11:28:00,
2013-06-10 07:30:00,59.7,57.4,29.79,ESE,106,2.0,0.0,92,0.00,,OVC003,0.00,VWS V14.01,2013-06-10 11:30:00,
2013-06-10 07:33:00,59.7,57.4,29.79,ESE,106,2.0,0.0,92,0.00,,OVC003,0.00,VWS V14.01,2013-06-10 11:33:00,
2013-06-10 07:35:00,59.7,57.4,29.79,ESE,106,2.0,0.0,92,0.00,,OVC003,0.00,VWS V14.01,2013-06-10 11:35:00,
2013-06-10 07:38:00,59.7,57.4,29.79,ESE,106,2.0,0.0,92,0.00,,OVC003,0.00,VWS V14.01,2013-06-10 11:38:00,
2013-06-10 07:40:00,59.7,57.4,29.79,ESE,106,2.0,0.0,92,0.00,,OVC003,0.00,VWS V14.01,2013-06-10 11:40:00,
2013-06-10 07:43:00,59.7,57.4,29.79,ESE,106,2.0,0.0,92,0.00,,OVC003,0.00,VWS V14.01,2013-06-10 11:43:00,
2013-06-10 07:45:00,59.8,57.5,29.78,ESE,106,2.0,0.0,92,0.00,,OVC003,0.00,VWS V14.01,2013-06-10 11:45:00,
2013-06-10 07:48:00,59.8,57.5,29.78,ESE,106,2.0,0.0,92,0.00,,OVC003,0.00,VWS V14.01,2013-06-10 11:48:00,
2013-06-10 07:50:00,59.9,57.6,29.78,ESE,106,2.0,0.0,92,0.00,,OVC003,0.00,VWS V14.01,2013-06-10 11:50:00,
2013-06-10 07:54:00,59.8,57.5,29.78,ESE,106,2.0,0.0,92,0.00,,OVC003,0.00,VWS V14.01,2013-06-10 11:54:00,
2013-06-10 07:55:00,59.9,57.6,29.78,ESE,106,2.0,2.0,92,0.00,,OVC003,0.00,VWS V14.01,2013-06-10 11:55:00,
2013-06-10 07:59:00,59.9,57.6,29.78,ESE,106,2.0,0.0,92,0.00,,OVC003,0.00,VWS V14.01,2013-06-10 11:59:00,
2013-06-10 08:00:00,60.0,57.7,29.77,ENE,63,2.0,2.0,92,0.00,,OVC003,0.00,VWS V14.01,2013-06-10 12:00:00,
2013-06-10 08:04:00,60.0,57.7,29.77,ENE,63,2.0,2.0,92,0.00,,OVC003,0.00,VWS V14.01,2013-06-10 12:04:00,
2013-06-10 08:05:00,60.0,57.7,29.77,ENE,63,2.0,0.0,92,0.00,,OVC003,0.00,VWS V14.01,2013-06-10 12:05:00,
2013-06-10 08:09:00,60.0,57.7,29.77,ENE,63,2.0,0.0,92,0.00,,OVC003,0.00,VWS V14.01,2013-06-10 12:09:00,
2013-06-10 08:10:00,60.0,57.7,29.77,ENE,63,2.0,0.0,92,0.00,,OVC003,0.00,VWS V14.01,2013-06-10 12:10:00,
2013-06-10 08:14:00,60.0,57.7,29.77,ENE,63,2.0,0.0,92,0.00,,OVC003,0.00,VWS V14.01,2013-06-10 12:14:00,
2013-06-10 08:15:00,60.1,57.8,29.77,ENE,63,2.0,0.0,92,0.00,,OVC003,0.00,VWS V14.01,2013-06-10 12:15:00,
2013-06-10 08:19:00,60.1,57.8,29.77,ENE,63,2.0,0.0,92,0.00,,OVC003,0.00,VWS V14.01,2013-06-10 12:19:00,
2013-06-10 08:20:00,60.1,58.1,29.77,ENE,63,2.0,0.0,93,0.00,,OVC003,0.00,VWS V14.01,2013-06-10 12:20:00,
2013-06-10 08:24:00,60.1,58.1,29.77,ENE,63,2.0,0.0,93,0.00,,OVC003,0.00,VWS V14.01,2013-06-10 12:24:00,
2013-06-10 08:25:00,60.2,58.2,29.77,ENE,63,2.0,0.0,93,0.00,,OVC003,0.00,VWS V14.01,2013-06-10 12:25:00,
2013-06-10 08:29:00,60.2,58.2,29.77,ENE,63,2.0,0.0,93,0.00,,OVC003,0.00,VWS V14.01,2013-06-10 12:29:00,
2013-06-10 08:30:00,60.3,58.3,29.77,ENE,63,2.0,0.0,93,0.00,,OVC003,0.00,VWS V14.01,2013-06-10 12:30:00,
2013-06-10 08:34:00,60.3,58.3,29.77,ENE,63,2.0,0.0,93,0.00,,OVC003,0.00,VWS V14.01,2013-06-10 12:34:00,
2013-06-10 08:35:00,60.3,58.3,29.77,ENE,63,2.0,2.0,93,0.00,,OVC003,0.00,VWS V14.01,2013-06-10 12:35:00,
2013-06-10 08:39:00,60.4,58.4,29.77,ENE,63,2.0,2.0,93,0.00,,OVC003,0.00,VWS V14.01,2013-06-10 12:39:00,
2013-06-10 08:40:00,60.4,58.4,29.77,ENE,63,2.0,0.0,93,0.00,,OVC003,0.00,VWS V14.01,2013-06-10 12:40:00,
2013-06-10 08:44:00,60.4,58.4,29.77,ENE,63,2.0,0.0,93,0.00,,OVC003,0.00,VWS V14.01,2013-06-10 12:44:00,
2013-06-10 08:45:00,60.5,58.5,29.77,ENE,63,2.0,0.0,93,0.00,,OVC003,0.00,VWS V14.01,2013-06-10 12:45:00,
2013-06-10 08:49:00,60.5,58.5,29.77,ENE,63,2.0,0.0,93,0.00,,OVC003,0.00,VWS V14.01,2013-06-10 12:49:00,
2013-06-10 08:50:00,60.7,58.7,29.77,ENE,63,2.0,0.0,93,0.00,,OVC003,0.00,VWS V14.01,2013-06-10 12:50:00,
2013-06-10 08:54:00,60.7,58.7,29.77,ENE,63,2.0,0.0,93,0.00,,OVC003,0.00,VWS V14.01,2013-06-10 12:54:00,
2013-06-10 08:55:00,60.7,58.7,29.77,ENE,63,2.0,0.0,93,0.00,,OVC003,0.00,VWS V14.01,2013-06-10 12:55:00,
2013-06-10 08:59:00,60.7,58.7,29.77,ENE,63,2.0,0.0,93,0.00,,OVC003,0.00,VWS V14.01,2013-06-10 12:59:00,
2013-06-10 09:00:00,60.8,58.8,29.77,ENE,63,2.0,0.0,93,0.00,,OVC003,0.00,VWS V14.01,2013-06-10 13:00:00,
2013-06-10 09:04:00,60.8,58.8,29.77,ENE,63,2.0,0.0,93,0.00,,OVC003,0.00,VWS V14.01,2013-06-10 13:04:00,
2013-06-10 09:05:00,60.9,58.9,29.77,ENE,63,2.0,0.0,93,0.00,,OVC003,0.00,VWS V14.01,2013-06-10 13:05:00,
2013-06-10 09:09:00,60.9,58.9,29.77,ENE,63,2.0,0.0,93,0.00,,OVC003,0.00,VWS V14.01,2013-06-10 13:09:00,
2013-06-10 09:10:00,61.1,59.1,29.77,ENE,63,2.0,0.0,93,0.00,,OVC003,0.00,VWS V14.01,2013-06-10 13:10:00,
2013-06-10 09:14:00,61.1,59.1,29.77,ENE,63,2.0,0.0,93,0.00,,OVC003,0.00,VWS V14.01,2013-06-10 13:14:00,
2013-06-10 09:15:00,61.3,59.3,29.76,ENE,63,2.0,2.0,93,0.00,,OVC003,0.00,VWS V14.01,2013-06-10 13:15:00,
2013-06-10 09:19:00,61.3,59.3,29.76,ENE,63,2.0,0.0,93,0.00,,OVC003,0.00,VWS V14.01,2013-06-10 13:19:00,
2013-06-10 09:20:00,61.4,59.4,29.76,ENE,63,2.0,0.0,93,0.00,,OVC003,0.00,VWS V14.01,2013-06-10 13:20:00,
2013-06-10 09:24:00,61.4,59.4,29.76,ENE,63,2.0,0.0,93,0.00,,OVC003,0.00,VWS V14.01,2013-06-10 13:24:00,
2013-06-10 09:25:00,61.5,59.5,29.76,ENE,63,2.0,0.0,93,0.00,,OVC003,0.00,VWS V14.01,2013-06-10 13:25:00,
2013-06-10 09:29:00,61.5,59.5,29.76,ENE,63,2.0,0.0,93,0.00,,OVC003,0.00,VWS V14.01,2013-06-10 13:29:00,
2013-06-10 09:30:00,61.6,59.9,29.76,ENE,63,2.0,0.0,94,0.00,,OVC003,0.00,VWS V14.01,2013-06-10 13:30:00,
2013-06-10 09:34:00,61.6,59.9,29.76,ENE,63,2.0,0.0,94,0.00,,OVC003,0.00,VWS V14.01,2013-06-10 13:34:00,
2013-06-10 09:35:00,61.7,59.7,29.76,ENE,63,2.0,0.0,93,0.00,,OVC003,0.00,VWS V14.01,2013-06-10 13:35:00,
2013-06-10 09:39:00,61.7,59.7,29.76,ENE,63,2.0,0.0,93,0.00,,OVC003,0.00,VWS V14.01,2013-06-10 13:39:00,
2013-06-10 09:40:00,61.8,59.8,29.76,ENE,63,2.0,0.0,93,0.00,,OVC003,0.00,VWS V14.01,2013-06-10 13:40:00,
2013-06-10 09:44:00,61.8,59.8,29.76,ENE,63,2.0,0.0,93,0.00,,OVC003,0.00,VWS V14.01,2013-06-10 13:44:00,
2013-06-10 09:45:00,62.0,60.0,29.76,ENE,63,2.0,0.0,93,0.00,,OVC003,0.00,VWS V14.01,2013-06-10 13:45:00,
2013-06-10 09:50:00,62.0,60.3,29.76,ENE,63,2.0,0.0,94,0.00,,OVC003,0.00,VWS V14.01,2013-06-10 13:50:00,
2013-06-10 09:55:00,62.1,60.4,29.76,ENE,63,2.0,0.0,94,0.00,,OVC003,0.00,VWS V14.01,2013-06-10 13:55:00,
2013-06-10 10:00:00,62.2,60.5,29.76,ENE,63,2.0,0.0,94,0.00,,OVC003,0.00,VWS V14.01,2013-06-10 14:00:00,
2013-06-10 10:05:00,62.2,60.5,29.77,ENE,63,2.0,0.0,94,0.00,,OVC003,0.00,VWS V14.01,2013-06-10 14:05:00,
2013-06-10 10:10:00,62.4,60.7,29.77,ENE,63,2.0,0.0,94,0.00,,OVC003,0.00,VWS V14.01,2013-06-10 14:10:00,
2013-06-10 10:15:00,62.4,60.7,29.77,ENE,63,2.0,0.0,94,0.00,,OVC003,0.00,VWS V14.01,2013-06-10 14:15:00,
2013-06-10 10:20:00,62.4,60.7,29.77,ENE,63,2.0,0.0,94,0.00,,OVC003,0.00,VWS V14.01,2013-06-10 14:20:00,
2013-06-10 10:25:00,62.4,60.7,29.77,ENE,63,2.0,0.0,94,0.00,,OVC003,0.00,VWS V14.01,2013-06-10 14:25:00,
2013-06-10 10:30:00,62.4,60.7,29.77,ENE,63,2.0,0.0,94,0.00,,OVC003,0.00,VWS V14.01,2013-06-10 14:30:00,
2013-06-10 10:35:00,62.5,60.8,29.76,ENE,63,2.0,0.0,94,0.00,,OVC003,0.00,VWS V14.01,2013-06-10 14:35:00,
2013-06-10 10:40:00,62.5,60.8,29.76,ENE,63,2.0,0.0,94,0.00,,OVC003,0.00,VWS V14.01,2013-06-10 14:40:00,
2013-06-10 10:45:00,62.6,60.8,29.76,ENE,63,2.0,0.0,94,0.00,,OVC003,0.00,VWS V14.01,2013-06-10 14:45:00,
2013-06-10 10:50:00,62.7,61.0,29.76,ENE,63,2.0,0.0,94,0.00,,OVC003,0.00,VWS V14.01,2013-06-10 14:50:00,
2013-06-10 10:55:00,62.7,61.0,29.76,ENE,63,2.0,0.0,94,0.00,,OVC003,0.00,VWS V14.01,2013-06-10 14:55:00,
2013-06-10 11:00:00,62.7,61.0,29.76,ENE,63,2.0,0.0,94,0.00,,OVC003,0.00,VWS V14.01,2013-06-10 15:00:00,
2013-06-10 11:05:00,62.8,61.0,29.75,ENE,63,2.0,0.0,94,0.00,,OVC003,0.00,VWS V14.01,2013-06-10 15:05:00,
2013-06-10 11:10:00,62.9,61.2,29.75,ENE,63,2.0,0.0,94,0.00,,OVC003,0.00,VWS V14.01,2013-06-10 15:10:00,
2013-06-10 11:15:00,62.9,61.2,29.75,ENE,63,2.0,0.0,94,0.00,,OVC003,0.00,VWS V14.01,2013-06-10 15:15:00,
2013-06-10 11:20:00,62.9,61.2,29.75,ENE,63,2.0,0.0,94,0.00,,OVC003,0.00,VWS V14.01,2013-06-10 15:20:00,
2013-06-10 11:25:00,63.1,61.3,29.75,ENE,63,2.0,0.0,94,0.00,,OVC003,0.00,VWS V14.01,2013-06-10 15:25:00,
2013-06-10 11:26:00,63.1,61.3,29.75,ENE,63,2.0,0.0,94,0.00,,OVC003,0.00,VWS V14.01,2013-06-10 15:26:00,
2013-06-10 11:30:00,63.3,61.5,29.75,ENE,63,2.0,0.0,94,0.00,,OVC003,0.00,VWS V14.01,2013-06-10 15:30:00,
2013-06-10 11:31:00,63.2,61.5,29.75,ENE,63,2.0,0.0,94,0.00,,OVC003,0.00,VWS V14.01,2013-06-10 15:31:00,
2013-06-10 11:35:00,63.6,61.8,29.75,ENE,63,2.0,0.0,94,0.00,,OVC003,0.00,VWS V14.01,2013-06-10 15:35:00,
2013-06-10 11:36:00,63.4,61.7,29.75,ENE,63,2.0,0.0,94,0.00,,OVC003,0.00,VWS V14.01,2013-06-10 15:36:00,
2013-06-10 11:40:00,63.7,61.9,29.75,ENE,63,2.0,0.0,94,0.00,,OVC003,0.00,VWS V14.01,2013-06-10 15:40:00,
2013-06-10 11:41:00,63.6,61.8,29.75,ENE,63,2.0,0.0,94,0.00,,OVC003,0.00,VWS V14.01,2013-06-10 15:41:00,
2013-06-10 11:45:00,63.9,62.1,29.75,ENE,63,2.0,2.0,94,0.00,,OVC003,0.00,VWS V14.01,2013-06-10 15:45:00,
2013-06-10 11:46:00,63.8,62.0,29.75,ENE,63,2.0,0.0,94,0.00,,OVC003,0.00,VWS V14.01,2013-06-10 15:46:00,
2013-06-10 11:50:00,64.1,62.3,29.75,ENE,63,2.0,0.0,94,0.00,,OVC003,0.00,VWS V14.01,2013-06-10 15:50:00,
2013-06-10 11:51:00,64.0,62.2,29.75,ENE,63,2.0,0.0,94,0.00,,OVC003,0.00,VWS V14.01,2013-06-10 15:51:00,
2013-06-10 11:55:00,64.2,62.4,29.75,ENE,63,2.0,0.0,94,0.00,,OVC003,0.00,VWS V14.01,2013-06-10 15:55:00,
2013-06-10 11:56:00,64.1,62.3,29.75,ENE,63,2.0,0.0,94,0.00,,OVC003,0.00,VWS V14.01,2013-06-10 15:56:00,
2013-06-10 12:00:00,64.4,62.6,29.74,ENE,63,3.0,3.0,94,0.00,,OVC003,0.00,VWS V14.01,2013-06-10 16:00:00,
2013-06-10 12:01:00,64.3,62.5,29.75,ENE,63,2.0,0.0,94,0.00,,OVC003,0.00,VWS V14.01,2013-06-10 16:01:00,
2013-06-10 12:05:00,64.4,62.6,29.74,ENE,63,2.0,2.0,94,0.00,,OVC003,0.00,VWS V14.01,2013-06-10 16:05:00,
2013-06-10 12:06:00,64.4,62.6,29.74,ENE,63,2.0,2.0,94,0.00,,OVC003,0.00,VWS V14.01,2013-06-10 16:06:00,
2013-06-10 12:10:00,64.5,62.7,29.74,ENE,63,2.0,0.0,94,0.00,,OVC003,0.00,VWS V14.01,2013-06-10 16:10:00,
2013-06-10 12:11:00,64.4,62.6,29.74,ENE,63,2.0,0.0,94,0.00,,OVC003,0.00,VWS V14.01,2013-06-10 16:11:00,
2013-06-10 12:15:00,64.6,62.8,29.74,ENE,63,2.0,0.0,94,0.00,,OVC003,0.00,VWS V14.01,2013-06-10 16:15:00,
2013-06-10 12:16:00,64.5,62.7,29.74,ENE,63,2.0,0.0,94,0.00,,OVC003,0.00,VWS V14.01,2013-06-10 16:16:00,
2013-06-10 12:20:00,64.7,62.9,29.74,ENE,63,2.0,0.0,94,0.00,,OVC003,0.00,VWS V14.01,2013-06-10 16:20:00,
2013-06-10 12:21:00,64.6,62.8,29.74,ENE,63,2.0,0.0,94,0.00,,OVC003,0.00,VWS V14.01,2013-06-10 16:21:00,
2013-06-10 12:25:00,64.8,63.0,29.74,ENE,63,2.0,0.0,94,0.00,,OVC003,0.00,VWS V14.01,2013-06-10 16:25:00,
2013-06-10 12:26:00,64.7,62.9,29.74,ENE,63,2.0,0.0,94,0.00,,OVC003,0.00,VWS V14.01,2013-06-10 16:26:00,
2013-06-10 12:30:00,64.9,63.1,29.74,ENE,63,2.0,0.0,94,0.00,,OVC003,0.00,VWS V14.01,2013-06-10 16:30:00,
2013-06-10 12:31:00,64.8,63.0,29.74,ENE,63,2.0,0.0,94,0.00,,OVC003,0.00,VWS V14.01,2013-06-10 16:31:00,
2013-06-10 12:35:00,64.8,63.0,29.74,ENE,63,2.0,2.0,94,0.00,,OVC003,0.00,VWS V14.01,2013-06-10 16:35:00,
2013-06-10 12:36:00,64.8,63.0,29.74,ENE,63,2.0,0.0,94,0.00,,OVC003,0.00,VWS V14.01,2013-06-10 16:36:00,
2013-06-10 12:40:00,64.8,63.0,29.74,ENE,63,2.0,0.0,94,0.00,,OVC003,0.00,VWS V14.01,2013-06-10 16:40:00,
2013-06-10 12:41:00,64.8,63.0,29.74,ENE,63,2.0,0.0,94,0.00,,OVC003,0.00,VWS V14.01,2013-06-10 16:41:00,
2013-06-10 12:45:00,65.0,63.5,29.73,ENE,63,2.0,0.0,95,0.00,,OVC003,0.00,VWS V14.01,2013-06-10 16:45:00,
2013-06-10 12:46:00,64.8,63.0,29.74,ENE,63,2.0,0.0,94,0.00,,OVC003,0.00,VWS V14.01,2013-06-10 16:46:00,
2013-06-10 12:50:00,65.0,63.2,29.73,ENE,63,2.0,2.0,94,0.00,,OVC003,0.00,VWS V14.01,2013-06-10 16:50:00,
2013-06-10 12:51:00,65.0,63.2,29.73,ENE,63,2.0,2.0,94,0.00,,OVC003,0.00,VWS V14.01,2013-06-10 16:51:00,
2013-06-10 12:55:00,65.0,63.2,29.73,ENE,63,2.0,2.0,94,0.00,,OVC003,0.00,VWS V14.01,2013-06-10 16:55:00,
2013-06-10 12:56:00,64.9,63.1,29.73,ENE,63,2.0,2.0,94,0.00,,OVC003,0.00,VWS V14.01,2013-06-10 16:56:00,
2013-06-10 13:00:00,65.1,63.3,29.73,ENE,63,2.0,0.0,94,0.00,,OVC003,0.00,VWS V14.01,2013-06-10 17:00:00,
2013-06-10 13:01:00,65.0,63.2,29.73,ENE,63,2.0,0.0,94,0.00,,OVC003,0.00,VWS V14.01,2013-06-10 17:01:00,
2013-06-10 13:05:00,65.3,63.5,29.73,ENE,63,2.0,2.0,94,0.00,,OVC003,0.00,VWS V14.01,2013-06-10 17:05:00,
2013-06-10 13:06:00,65.2,63.4,29.73,ENE,63,2.0,2.0,94,0.00,,OVC003,0.00,VWS V14.01,2013-06-10 17:06:00,
2013-06-10 13:10:00,65.4,63.6,29.73,ENE,63,2.0,0.0,94,0.00,,OVC003,0.00,VWS V14.01,2013-06-10 17:10:00,
2013-06-10 13:11:00,65.3,63.5,29.73,ENE,63,2.0,0.0,94,0.00,,OVC003,0.00,VWS V14.01,2013-06-10 17:11:00,
2013-06-10 13:15:00,65.5,63.7,29.72,ENE,63,2.0,0.0,94,0.00,,OVC003,0.00,VWS V14.01,2013-06-10 17:15:00,
2013-06-10 13:16:00,65.5,63.7,29.73,ENE,63,2.0,0.0,94,0.00,,OVC003,0.00,VWS V14.01,2013-06-10 17:16:00,
2013-06-10 13:20:00,65.6,63.8,29.72,ENE,63,2.0,0.0,94,0.00,,OVC003,0.00,VWS V14.01,2013-06-10 17:20:00,
2013-06-10 13:21:00,65.5,63.7,29.72,ENE,63,2.0,0.0,94,0.00,,OVC003,0.00,VWS V14.01,2013-06-10 17:21:00,
2013-06-10 13:25:00,65.5,63.7,29.72,ENE,63,2.0,0.0,94,0.00,,OVC003,0.00,VWS V14.01,2013-06-10 17:25:00,
2013-06-10 13:28:00,65.5,63.7,29.72,ENE,63,2.0,0.0,94,0.00,,OVC003,0.00,VWS V14.01,2013-06-10 17:28:00,
2013-06-10 13:30:00,65.4,63.6,29.73,ENE,63,2.0,0.0,94,0.00,,OVC003,0.00,VWS V14.01,2013-06-10 17:30:00,
2013-06-10 13:33:00,65.4,63.6,29.72,ENE,63,2.0,0.0,94,0.00,,OVC003,0.00,VWS V14.01,2013-06-10 17:33:00,
2013-06-10 13:35:00,65.5,63.7,29.73,ENE,63,2.0,2.0,94,0.00,,OVC003,0.00,VWS V14.01,2013-06-10 17:35:00,
2013-06-10 13:38:00,65.4,63.6,29.73,ENE,63,2.0,0.0,94,0.00,,OVC003,0.00,VWS V14.01,2013-06-10 17:38:00,
2013-06-10 13:40:00,65.6,63.8,29.73,ENE,63,2.0,0.0,94,0.00,,OVC003,0.00,VWS V14.01,2013-06-10 17:40:00,
2013-06-10 13:43:00,65.6,63.8,29.73,ENE,63,2.0,0.0,94,0.00,,OVC003,0.00,VWS V14.01,2013-06-10 17:43:00,
2013-06-10 13:45:00,65.6,63.8,29.72,ENE,63,2.0,0.0,94,0.00,,OVC003,0.00,VWS V14.01,2013-06-10 17:45:00,
2013-06-10 13:48:00,65.6,63.8,29.73,ENE,63,2.0,0.0,94,0.00,,OVC003,0.00,VWS V14.01,2013-06-10 17:48:00,
2013-06-10 13:50:00,65.6,63.8,29.72,ENE,63,2.0,0.0,94,0.00,,OVC003,0.00,VWS V14.01,2013-06-10 17:50:00,
2013-06-10 13:53:00,65.6,63.8,29.72,ENE,63,2.0,0.0,94,0.00,,OVC003,0.00,VWS V14.01,2013-06-10 17:53:00,
2013-06-10 13:55:00,65.6,63.8,29.72,ENE,63,2.0,0.0,94,0.00,,OVC003,0.00,VWS V14.01,2013-06-10 17:55:00,
2013-06-10 13:58:00,65.5,63.7,29.72,ENE,63,2.0,0.0,94,0.00,,OVC003,0.00,VWS V14.01,2013-06-10 17:58:00,
2013-06-10 14:00:00,65.6,63.8,29.72,ENE,63,2.0,0.0,94,0.00,,OVC003,0.00,VWS V14.01,2013-06-10 18:00:00,
2013-06-10 14:03:00,65.6,63.8,29.72,ENE,63,2.0,0.0,94,0.00,,OVC003,0.00,VWS V14.01,2013-06-10 18:03:00,
2013-06-10 14:05:00,65.6,63.8,29.72,ENE,63,2.0,0.0,94,0.00,,OVC003,0.00,VWS V14.01,2013-06-10 18:05:00,
2013-06-10 14:08:00,65.6,63.8,29.72,ENE,63,2.0,0.0,94,0.00,,OVC003,0.00,VWS V14.01,2013-06-10 18:08:00,
2013-06-10 14:10:00,65.5,63.7,29.72,ENE,63,2.0,0.0,94,0.00,,OVC003,0.00,VWS V14.01,2013-06-10 18:10:00,
2013-06-10 14:13:00,65.5,63.7,29.72,ENE,63,2.0,0.0,94,0.00,,OVC003,0.00,VWS V14.01,2013-06-10 18:13:00,
2013-06-10 14:15:00,65.3,63.2,29.72,ENE,63,2.0,2.0,93,0.00,,OVC003,0.00,VWS V14.01,2013-06-10 18:15:00,
2013-06-10 14:18:00,65.4,63.6,29.72,ENE,63,2.0,2.0,94,0.00,,OVC003,0.00,VWS V14.01,2013-06-10 18:18:00,
2013-06-10 14:20:00,65.0,62.9,29.72,ENE,63,2.0,0.0,93,0.00,,OVC003,0.00,VWS V14.01,2013-06-10 18:20:00,
2013-06-10 14:23:00,65.0,62.9,29.72,ENE,63,2.0,0.0,93,0.00,,OVC003,0.00,VWS V14.01,2013-06-10 18:23:00,
2013-06-10 14:25:00,64.8,62.7,29.72,ENE,63,2.0,0.0,93,0.00,,OVC003,0.00,VWS V14.01,2013-06-10 18:25:00,
2013-06-10 14:28:00,64.8,62.7,29.72,ENE,63,2.0,0.0,93,0.00,,OVC003,0.00,VWS V14.01,2013-06-10 18:28:00,
2013-06-10 14:30:00,64.6,62.5,29.71,ENE,63,2.0,0.0,93,0.00,,OVC003,0.00,VWS V14.01,2013-06-10 18:30:00,
2013-06-10 14:33:00,64.6,62.5,29.71,ENE,63,2.0,0.0,93,0.00,,OVC003,0.00,VWS V14.01,2013-06-10 18:33:00,
2013-06-10 14:35:00,64.4,62.3,29.71,ENE,63,2.0,2.0,93,0.00,,OVC003,0.00,VWS V14.01,2013-06-10 18:35:00,
2013-06-10 14:38:00,64.5,62.4,29.71,ENE,63,2.0,2.0,93,0.00,,OVC003,0.00,VWS V14.01,2013-06-10 18:38:00,
2013-06-10 14:40:00,64.4,62.3,29.71,ENE,63,2.0,2.0,93,0.00,,OVC003,0.00,VWS V14.01,2013-06-10 18:40:00,
2013-06-10 14:43:00,64.4,62.3,29.71,ENE,63,2.0,2.0,93,0.00,,OVC003,0.00,VWS V14.01,2013-06-10 18:43:00,
2013-06-10 14:45:00,64.5,62.4,29.71,ENE,63,2.0,0.0,93,0.00,,OVC003,0.00,VWS V14.01,2013-06-10 18:45:00,
2013-06-10 14:48:00,64.5,62.4,29.71,ENE,63,2.0,0.0,93,0.00,,OVC003,0.00,VWS V14.01,2013-06-10 18:48:00,
2013-06-10 14:50:00,64.5,62.4,29.71,ENE,63,2.0,2.0,93,0.00,,OVC003,0.00,VWS V14.01,2013-06-10 18:50:00,
2013-06-10 14:54:00,64.5,62.4,29.71,ENE,63,2.0,2.0,93,0.00,,OVC003,0.00,VWS V14.01,2013-06-10 18:54:00,
2013-06-10 14:55:00,64.6,62.8,29.71,ENE,63,2.0,0.0,94,0.00,,OVC003,0.00,VWS V14.01,2013-06-10 18:55:00,
2013-06-10 14:59:00,64.6,62.8,29.71,ENE,63,2.0,0.0,94,0.00,,OVC003,0.00,VWS V14.01,2013-06-10 18:59:00,
2013-06-10 15:00:00,64.6,62.8,29.71,ENE,63,2.0,0.0,94,0.00,,OVC003,0.00,VWS V14.01,2013-06-10 19:00:00,
2013-06-10 15:04:00,64.6,62.8,29.71,ENE,63,2.0,0.0,94,0.00,,OVC003,0.00,VWS V14.01,2013-06-10 19:04:00,
2013-06-10 15:05:00,64.6,62.8,29.71,ENE,63,2.0,2.0,94,0.00,,OVC003,0.00,VWS V14.01,2013-06-10 19:05:00,
2013-06-10 15:09:00,64.6,62.8,29.71,ENE,63,2.0,2.0,94,0.00,,OVC003,0.00,VWS V14.01,2013-06-10 19:09:00,
2013-06-10 15:10:00,64.5,62.4,29.71,ENE,63,2.0,0.0,93,0.00,,OVC003,0.00,VWS V14.01,2013-06-10 19:10:00,
2013-06-10 15:14:00,64.5,62.4,29.71,ENE,63,2.0,0.0,93,0.00,,OVC003,0.00,VWS V14.01,2013-06-10 19:14:00,
2013-06-10 15:15:00,64.5,62.7,29.71,ENE,63,2.0,0.0,94,0.00,,OVC003,0.00,VWS V14.01,2013-06-10 19:15:00,
2013-06-10 15:19:00,64.5,62.7,29.71,ENE,63,2.0,0.0,94,0.00,,OVC003,0.00,VWS V14.01,2013-06-10 19:19:00,
2013-06-10 15:20:00,64.5,62.7,29.71,ENE,63,2.0,0.0,94,0.00,,OVC003,0.00,VWS V14.01,2013-06-10 19:20:00,
2013-06-10 15:24:00,64.5,62.7,29.71,ENE,63,2.0,0.0,94,0.00,,OVC003,0.00,VWS V14.01,2013-06-10 19:24:00,
2013-06-10 15:25:00,64.5,62.7,29.71,ENE,63,2.0,0.0,94,0.00,,OVC003,0.00,VWS V14.01,2013-06-10 19:25:00,
2013-06-10 15:29:00,64.5,62.7,29.71,ENE,63,2.0,0.0,94,0.00,,OVC003,0.00,VWS V14.01,2013-06-10 19:29:00,
2013-06-10 15:30:00,64.6,62.8,29.70,ENE,63,2.0,2.0,94,0.00,,OVC003,0.00,VWS V14.01,2013-06-10 19:30:00,
2013-06-10 15:34:00,64.6,62.8,29.70,ENE,63,2.0,2.0,94,0.00,,OVC003,0.00,VWS V14.01,2013-06-10 19:34:00,
2013-06-10 15:35:00,64.7,62.9,29.70,ENE,63,2.0,0.0,94,0.00,,OVC003,0.00,VWS V14.01,2013-06-10 19:35:00,
2013-06-10 15:39:00,64.7,62.9,29.70,ENE,63,2.0,0.0,94,0.00,,OVC003,0.00,VWS V14.01,2013-06-10 19:39:00,
2013-06-10 15:40:00,64.7,62.9,29.70,ENE,63,2.0,0.0,94,0.00,,OVC003,0.00,VWS V14.01,2013-06-10 19:40:00,
2013-06-10 15:44:00,64.7,62.9,29.70,ENE,63,2.0,0.0,94,0.00,,OVC003,0.00,VWS V14.01,2013-06-10 19:44:00,
2013-06-10 15:45:00,64.5,62.7,29.71,ENE,63,2.0,0.0,94,0.00,,OVC003,0.00,VWS V14.01,2013-06-10 19:45:00,
2013-06-10 15:49:00,64.5,62.7,29.71,ENE,63,2.0,0.0,94,0.00,,OVC003,0.00,VWS V14.01,2013-06-10 19:49:00,
2013-06-10 15:50:00,64.3,62.5,29.71,ENE,63,2.0,2.0,94,0.00,,OVC003,0.00,VWS V14.01,2013-06-10 19:50:00,
2013-06-10 15:54:00,64.3,62.5,29.71,ENE,63,2.0,2.0,94,0.00,,OVC003,0.00,VWS V14.01,2013-06-10 19:54:00,
2013-06-10 15:55:00,64.2,62.4,29.71,ENE,63,2.0,2.0,94,0.00,,OVC003,0.00,VWS V14.01,2013-06-10 19:55:00,
2013-06-10 15:59:00,64.2,62.4,29.71,ENE,63,2.0,0.0,94,0.00,,OVC003,0.00,VWS V14.01,2013-06-10 19:59:00,
2013-06-10 16:00:00,64.2,62.4,29.71,ENE,63,2.0,0.0,94,0.00,,OVC003,0.00,VWS V14.01,2013-06-10 20:00:00,
2013-06-10 16:04:00,64.2,62.4,29.71,ENE,63,2.0,0.0,94,0.00,,OVC003,0.00,VWS V14.01,2013-06-10 20:04:00,
2013-06-10 16:05:00,64.1,62.3,29.71,ENE,63,2.0,0.0,94,0.00,,OVC003,0.00,VWS V14.01,2013-06-10 20:05:00,
2013-06-10 16:10:00,64.2,62.4,29.71,ENE,63,2.0,0.0,94,0.00,,OVC003,0.00,VWS V14.01,2013-06-10 20:10:00,
2013-06-10 16:15:00,64.1,62.3,29.71,ENE,63,2.0,0.0,94,0.00,,OVC003,0.00,VWS V14.01,2013-06-10 20:15:00,
2013-06-10 16:20:00,64.1,62.0,29.71,ENE,63,2.0,0.0,93,0.00,,OVC003,0.00,VWS V14.01,2013-06-10 20:20:00,
2013-06-10 16:25:00,64.1,62.3,29.71,ENE,63,2.0,0.0,94,0.00,,OVC003,0.00,VWS V14.01,2013-06-10 20:25:00,
2013-06-10 16:30:00,64.2,62.4,29.71,ENE,63,2.0,0.0,94,0.00,,OVC003,0.00,VWS V14.01,2013-06-10 20:30:00,
2013-06-10 16:35:00,64.2,62.4,29.71,ENE,63,2.0,0.0,94,0.00,,OVC003,0.00,VWS V14.01,2013-06-10 20:35:00,
2013-06-10 16:40:00,64.2,62.1,29.71,ENE,63,2.0,0.0,93,0.00,,OVC003,0.00,VWS V14.01,2013-06-10 20:40:00,
2013-06-10 16:45:00,64.2,62.1,29.71,ENE,63,2.0,0.0,93,0.00,,OVC003,0.00,VWS V14.01,2013-06-10 20:45:00,
2013-06-10 16:50:00,64.2,62.1,29.70,ENE,63,2.0,0.0,93,0.00,,OVC003,0.00,VWS V14.01,2013-06-10 20:50:00,
2013-06-10 16:55:00,64.2,62.1,29.70,ENE,63,2.0,0.0,93,0.00,,OVC003,0.00,VWS V14.01,2013-06-10 20:55:00,
2013-06-10 17:00:00,64.3,62.2,29.70,ENE,63,2.0,0.0,93,0.00,,OVC003,0.00,VWS V14.01,2013-06-10 21:00:00,
2013-06-10 17:05:00,64.4,62.3,29.70,ENE,63,2.0,0.0,93,0.00,,OVC003,0.00,VWS V14.01,2013-06-10 21:05:00,
2013-06-10 17:10:00,64.4,62.3,29.70,ENE,63,2.0,0.0,93,0.00,,OVC003,0.00,VWS V14.01,2013-06-10 21:10:00,
2013-06-10 17:15:00,64.5,62.4,29.70,ENE,63,2.0,2.0,93,0.00,,OVC003,0.00,VWS V14.01,2013-06-10 21:15:00,
2013-06-10 17:20:00,64.5,62.4,29.70,ENE,63,2.0,2.0,93,0.00,,OVC003,0.00,VWS V14.01,2013-06-10 21:20:00,
2013-06-10 17:25:00,64.5,62.4,29.70,ENE,63,2.0,0.0,93,0.00,,OVC003,0.00,VWS V14.01,2013-06-10 21:25:00,
2013-06-10 17:30:00,64.5,62.4,29.70,ENE,63,2.0,0.0,93,0.00,,OVC003,0.00,VWS V14.01,2013-06-10 21:30:00,
2013-06-10 17:35:00,64.5,62.4,29.70,ENE,63,2.0,0.0,93,0.00,,OVC003,0.00,VWS V14.01,2013-06-10 21:35:00,
2013-06-10 17:40:00,64.5,62.4,29.70,ENE,63,2.0,0.0,93,0.00,,OVC003,0.00,VWS V14.01,2013-06-10 21:40:00,
2013-06-10 17:45:00,64.7,62.6,29.70,ENE,63,2.0,0.0,93,0.00,,OVC003,0.00,VWS V14.01,2013-06-10 21:45:00,
2013-06-10 17:46:00,64.6,62.5,29.70,ENE,63,2.0,0.0,93,0.00,,OVC003,0.00,VWS V14.01,2013-06-10 21:46:00,
2013-06-10 17:50:00,64.7,62.6,29.70,ENE,63,2.0,0.0,93,0.00,,OVC003,0.00,VWS V14.01,2013-06-10 21:50:00,
2013-06-10 17:51:00,64.7,62.6,29.70,ENE,63,2.0,0.0,93,0.00,,OVC003,0.00,VWS V14.01,2013-06-10 21:51:00,
2013-06-10 17:55:00,64.8,62.7,29.70,ENE,63,2.0,0.0,93,0.00,,OVC003,0.00,VWS V14.01,2013-06-10 21:55:00,
2013-06-10 17:56:00,64.7,62.6,29.70,ENE,63,2.0,0.0,93,0.00,,OVC003,0.00,VWS V14.01,2013-06-10 21:56:00,
2013-06-10 18:00:00,64.8,62.7,29.70,ENE,63,2.0,0.0,93,0.00,,OVC003,0.00,VWS V14.01,2013-06-10 22:00:00,
2013-06-10 18:01:00,64.8,62.7,29.70,ENE,63,2.0,0.0,93,0.00,,OVC003,0.00,VWS V14.01,2013-06-10 22:01:00,
2013-06-10 18:05:00,64.8,62.7,29.70,ENE,63,2.0,0.0,93,0.00,,OVC003,0.00,VWS V14.01,2013-06-10 22:05:00,
2013-06-10 18:06:00,64.8,62.7,29.70,ENE,63,2.0,0.0,93,0.00,,OVC003,0.00,VWS V14.01,2013-06-10 22:06:00,
2013-06-10 18:10:00,64.9,62.8,29.70,ENE,63,2.0,0.0,93,0.00,,OVC003,0.00,VWS V14.01,2013-06-10 22:10:00,
2013-06-10 18:11:00,64.8,62.7,29.70,ENE,63,2.0,0.0,93,0.00,,OVC003,0.00,VWS V14.01,2013-06-10 22:11:00,
2013-06-10 18:15:00,64.9,62.8,29.70,ENE,63,2.0,0.0,93,0.00,,OVC003,0.00,VWS V14.01,2013-06-10 22:15:00,
2013-06-10 18:16:00,64.9,62.8,29.70,ENE,63,2.0,0.0,93,0.00,,OVC003,0.00,VWS V14.01,2013-06-10 22:16:00,
2013-06-10 18:20:00,65.0,63.2,29.70,ENE,63,2.0,0.0,94,0.00,,OVC003,0.00,VWS V14.01,2013-06-10 22:20:00,
2013-06-10 18:21:00,65.0,63.2,29.70,ENE,63,2.0,0.0,94,0.00,,OVC003,0.00,VWS V14.01,2013-06-10 22:21:00,
2013-06-10 18:25:00,65.0,63.2,29.70,ENE,63,2.0,0.0,94,0.00,,OVC003,0.00,VWS V14.01,2013-06-10 22:25:00,
2013-06-10 18:26:00,65.0,63.2,29.70,ENE,63,2.0,0.0,94,0.00,,OVC003,0.00,VWS V14.01,2013-06-10 22:26:00,
2013-06-10 18:30:00,64.8,63.0,29.70,NE,55,2.0,2.0,94,0.00,,OVC003,0.00,VWS V14.01,2013-06-10 22:30:00,
2013-06-10 18:31:00,65.0,63.2,29.70,NE,55,2.0,2.0,94,0.00,,OVC003,0.00,VWS V14.01,2013-06-10 22:31:00,
2013-06-10 18:35:00,64.8,63.0,29.70,NE,55,2.0,2.0,94,0.00,,OVC003,0.00,VWS V14.01,2013-06-10 22:35:00,
2013-06-10 18:36:00,64.8,63.0,29.70,NE,55,2.0,2.0,94,0.00,,OVC003,0.00,VWS V14.01,2013-06-10 22:36:00,
2013-06-10 18:40:00,64.7,62.9,29.70,NE,55,2.0,0.0,94,0.00,,OVC003,0.00,VWS V14.01,2013-06-10 22:40:00,
2013-06-10 18:41:00,64.8,63.0,29.70,NE,55,2.0,0.0,94,0.00,,OVC003,0.00,VWS V14.01,2013-06-10 22:41:00,
2013-06-10 18:45:00,64.7,62.6,29.71,NE,55,2.0,0.0,93,0.00,,OVC003,0.00,VWS V14.01,2013-06-10 22:45:00,
2013-06-10 18:46:00,64.7,62.6,29.70,NE,55,2.0,0.0,93,0.00,,OVC003,0.00,VWS V14.01,2013-06-10 22:46:00,
2013-06-10 18:50:00,64.7,62.6,29.71,NE,55,2.0,2.0,93,0.00,,OVC003,0.00,VWS V14.01,2013-06-10 22:50:00,
2013-06-10 18:51:00,64.7,62.6,29.71,NE,55,2.0,2.0,93,0.00,,OVC003,0.00,VWS V14.01,2013-06-10 22:51:00,
2013-06-10 18:55:00,64.6,62.8,29.71,NE,55,2.0,2.0,94,0.00,,OVC003,0.00,VWS V14.01,2013-06-10 22:55:00,
2013-06-10 18:56:00,64.6,62.8,29.71,NE,55,2.0,0.0,94,0.00,,OVC003,0.00,VWS V14.01,2013-06-10 22:56:00,
2013-06-10 19:00:00,64.5,62.7,29.71,NE,55,2.0,0.0,94,0.00,,OVC003,0.00,VWS V14.01,2013-06-10 23:00:00,
2013-06-10 19:01:00,64.5,62.7,29.71,NE,55,2.0,0.0,94,0.00,,OVC003,0.00,VWS V14.01,2013-06-10 23:01:00,
2013-06-10 19:05:00,64.4,62.6,29.71,NE,55,2.0,0.0,94,0.00,,OVC003,0.00,VWS V14.01,2013-06-10 23:05:00,
2013-06-10 19:06:00,64.5,62.7,29.71,NE,55,2.0,0.0,94,0.00,,OVC003,0.00,VWS V14.01,2013-06-10 23:06:00,
2013-06-10 19:10:00,64.4,62.6,29.71,NE,55,2.0,0.0,94,0.00,,OVC003,0.00,VWS V14.01,2013-06-10 23:10:00,
2013-06-10 19:11:00,64.4,62.6,29.71,NE,55,2.0,0.0,94,0.00,,OVC003,0.00,VWS V14.01,2013-06-10 23:11:00,
2013-06-10 19:15:00,64.4,62.6,29.71,NE,55,2.0,0.0,94,0.00,,OVC003,0.00,VWS V14.01,2013-06-10 23:15:00,
2013-06-10 19:16:00,64.4,62.6,29.71,NE,55,2.0,0.0,94,0.00,,OVC003,0.00,VWS V14.01,2013-06-10 23:16:00,
2013-06-10 19:20:00,64.4,62.6,29.71,NE,55,2.0,2.0,94,0.00,,OVC003,0.00,VWS V14.01,2013-06-10 23:20:00,
2013-06-10 19:21:00,64.4,62.6,29.71,NE,55,2.0,2.0,94,0.00,,OVC003,0.00,VWS V14.01,2013-06-10 23:21:00,
2013-06-10 19:25:00,64.5,62.7,29.71,NE,55,2.0,2.0,94,0.00,,OVC003,0.00,VWS V14.01,2013-06-10 23:25:00,
2013-06-10 19:27:00,64.4,62.6,29.71,NE,55,2.0,0.0,94,0.00,,OVC003,0.00,VWS V14.01,2013-06-10 23:27:00,
2013-06-10 19:30:00,64.5,62.7,29.71,NE,55,2.0,0.0,94,0.00,,OVC003,0.00,VWS V14.01,2013-06-10 23:30:00,
2013-06-10 19:32:00,64.5,62.7,29.71,NE,55,2.0,0.0,94,0.00,,OVC003,0.00,VWS V14.01,2013-06-10 23:32:00,
2013-06-10 19:35:00,64.5,62.7,29.71,NE,55,2.0,0.0,94,0.00,,OVC003,0.00,VWS V14.01,2013-06-10 23:35:00,
2013-06-10 19:37:00,64.5,62.7,29.71,NE,55,2.0,0.0,94,0.00,,OVC003,0.00,VWS V14.01,2013-06-10 23:37:00,
2013-06-10 19:40:00,64.5,62.7,29.71,NE,55,2.0,0.0,94,0.00,,OVC003,0.00,VWS V14.01,2013-06-10 23:40:00,
2013-06-10 19:42:00,64.5,62.7,29.71,NE,55,2.0,0.0,94,0.00,,OVC003,0.00,VWS V14.01,2013-06-10 23:42:00,
2013-06-10 19:45:00,64.4,62.6,29.71,NE,55,2.0,0.0,94,0.00,,OVC003,0.00,VWS V14.01,2013-06-10 23:45:00,
2013-06-10 19:47:00,64.4,62.6,29.71,NE,55,2.0,0.0,94,0.00,,OVC003,0.00,VWS V14.01,2013-06-10 23:47:00,
2013-06-10 19:50:00,64.3,62.5,29.71,NE,55,2.0,0.0,94,0.00,,OVC003,0.00,VWS V14.01,2013-06-10 23:50:00,
2013-06-10 19:52:00,64.3,62.5,29.71,NE,55,2.0,0.0,94,0.00,,OVC003,0.00,VWS V14.01,2013-06-10 23:52:00,
2013-06-10 19:55:00,64.3,62.5,29.71,NE,55,2.0,0.0,94,0.00,,OVC003,0.00,VWS V14.01,2013-06-10 23:55:00,
2013-06-10 19:57:00,64.3,62.5,29.71,NE,55,2.0,0.0,94,0.00,,OVC003,0.00,VWS V14.01,2013-06-10 23:57:00,
2013-06-10 20:00:00,64.2,62.4,29.71,NE,55,2.0,0.0,94,0.00,,OVC003,0.00,VWS V14.01,2013-06-11 00:00:00,
2013-06-10 20:02:00,64.2,62.4,29.71,NE,55,2.0,0.0,94,0.00,,OVC003,0.00,VWS V14.01,2013-06-11 00:02:00,
2013-06-10 20:05:00,64.2,62.4,29.71,NE,55,2.0,0.0,94,0.00,,OVC003,0.00,VWS V14.01,2013-06-11 00:05:00,
2013-06-10 20:07:00,64.2,62.4,29.71,NE,55,2.0,0.0,94,0.00,,OVC003,0.00,VWS V14.01,2013-06-11 00:07:00,
2013-06-10 20:10:00,64.2,62.4,29.71,NE,55,2.0,0.0,94,0.00,,OVC003,0.00,VWS V14.01,2013-06-11 00:10:00,
2013-06-10 20:12:00,64.2,62.4,29.71,NE,55,2.0,0.0,94,0.00,,OVC003,0.00,VWS V14.01,2013-06-11 00:12:00,
2013-06-10 20:15:00,64.2,62.4,29.71,NE,55,2.0,0.0,94,0.00,,OVC003,0.00,VWS V14.01,2013-06-11 00:15:00,
2013-06-10 20:17:00,64.2,62.4,29.71,NE,55,2.0,0.0,94,0.00,,OVC003,0.00,VWS V14.01,2013-06-11 00:17:00,
2013-06-10 20:20:00,64.1,62.3,29.71,NE,55,2.0,0.0,94,0.00,,OVC003,0.00,VWS V14.01,2013-06-11 00:20:00,
2013-06-10 20:22:00,64.2,62.4,29.71,NE,55,2.0,0.0,94,0.00,,OVC003,0.00,VWS V14.01,2013-06-11 00:22:00,
2013-06-10 20:25:00,64.1,62.3,29.71,NE,55,2.0,2.0,94,0.00,,OVC003,0.00,VWS V14.01,2013-06-11 00:25:00,
2013-06-10 20:27:00,64.2,62.4,29.71,NE,55,2.0,0.0,94,0.00,,OVC003,0.00,VWS V14.01,2013-06-11 00:27:00,
2013-06-10 20:30:00,64.1,62.3,29.71,NE,55,2.0,0.0,94,0.00,,OVC003,0.00,VWS V14.01,2013-06-11 00:30:00,
2013-06-10 20:32:00,64.1,62.3,29.71,NE,55,2.0,0.0,94,0.00,,OVC003,0.00,VWS V14.01,2013-06-11 00:32:00,
2013-06-10 20:35:00,64.1,62.3,29.71,NE,55,2.0,0.0,94,0.00,,OVC003,0.00,VWS V14.01,2013-06-11 00:35:00,
2013-06-10 20:37:00,64.1,62.3,29.71,NE,55,2.0,0.0,94,0.00,,OVC003,0.00,VWS V14.01,2013-06-11 00:37:00,
2013-06-10 20:40:00,64.0,62.2,29.71,NE,55,2.0,0.0,94,0.00,,OVC003,0.00,VWS V14.01,2013-06-11 00:40:00,
2013-06-10 20:43:00,64.0,62.2,29.71,NE,55,2.0,0.0,94,0.00,,OVC003,0.00,VWS V14.01,2013-06-11 00:43:00,
2013-06-10 20:45:00,64.0,62.2,29.71,NE,55,2.0,0.0,94,0.00,,OVC003,0.00,VWS V14.01,2013-06-11 00:45:00,
2013-06-10 20:48:00,64.0,62.2,29.71,NE,55,2.0,0.0,94,0.00,,OVC003,0.00,VWS V14.01,2013-06-11 00:48:00,
2013-06-10 20:50:00,64.0,62.2,29.71,NE,55,2.0,0.0,94,0.00,,OVC003,0.00,VWS V14.01,2013-06-11 00:50:00,
2013-06-10 20:53:00,64.0,62.2,29.71,NE,55,2.0,0.0,94,0.00,,OVC003,0.00,VWS V14.01,2013-06-11 00:53:00,
2013-06-10 20:55:00,64.0,62.2,29.71,NE,55,2.0,0.0,94,0.00,,OVC003,0.00,VWS V14.01,2013-06-11 00:55:00,
2013-06-10 20:58:00,64.0,62.2,29.71,NE,55,2.0,0.0,94,0.00,,OVC003,0.00,VWS V14.01,2013-06-11 00:58:00,
2013-06-10 21:00:00,64.0,62.2,29.71,NE,55,2.0,0.0,94,0.00,,OVC003,0.00,VWS V14.01,2013-06-11 01:00:00,
2013-06-10 21:03:00,64.0,62.2,29.71,NE,55,2.0,0.0,94,0.00,,OVC003,0.00,VWS V14.01,2013-06-11 01:03:00,
2013-06-10 21:05:00,64.1,62.3,29.71,NE,55,2.0,0.0,94,0.00,,OVC003,0.00,VWS V14.01,2013-06-11 01:05:00,
2013-06-10 21:08:00,64.0,62.2,29.71,NE,55,2.0,0.0,94,0.00,,OVC003,0.00,VWS V14.01,2013-06-11 01:08:00,
2013-06-10 21:10:00,64.1,62.3,29.71,NE,55,2.0,2.0,94,0.00,,OVC003,0.00,VWS V14.01,2013-06-11 01:10:00,
2013-06-10 21:13:00,64.1,62.3,29.71,NE,55,2.0,0.0,94,0.00,,OVC003,0.00,VWS V14.01,2013-06-11 01:13:00,
2013-06-10 21:15:00,64.0,62.2,29.71,NE,55,2.0,0.0,94,0.00,,OVC003,0.00,VWS V14.01,2013-06-11 01:15:00,
2013-06-10 21:18:00,64.1,62.3,29.71,NE,55,2.0,0.0,94,0.00,,OVC003,0.00,VWS V14.01,2013-06-11 01:18:00,
2013-06-10 21:20:00,64.0,62.2,29.71,NE,55,3.0,3.0,94,0.00,,OVC003,0.00,VWS V14.01,2013-06-11 01:20:00,
2013-06-10 21:23:00,64.0,62.2,29.71,NE,55,2.0,0.0,94,0.00,,OVC003,0.00,VWS V14.01,2013-06-11 01:23:00,
2013-06-10 21:25:00,64.0,62.2,29.71,NE,55,2.0,2.0,94,0.00,,OVC003,0.00,VWS V14.01,2013-06-11 01:25:00,
2013-06-10 21:28:00,64.0,62.2,29.71,NE,55,2.0,2.0,94,0.00,,OVC003,0.00,VWS V14.01,2013-06-11 01:28:00,
2013-06-10 21:30:00,64.0,62.2,29.71,NE,55,2.0,0.0,94,0.00,,OVC003,0.00,VWS V14.01,2013-06-11 01:30:00,
2013-06-10 21:33:00,64.0,62.2,29.71,NE,55,2.0,0.0,94,0.00,,OVC003,0.00,VWS V14.01,2013-06-11 01:33:00,
2013-06-10 21:35:00,63.9,62.1,29.71,NE,55,2.0,2.0,94,0.00,,OVC003,0.00,VWS V14.01,2013-06-11 01:35:00,
2013-06-10 21:38:00,63.9,62.1,29.71,NE,55,2.0,2.0,94,0.00,,OVC003,0.00,VWS V14.01,2013-06-11 01:38:00,
2013-06-10 21:40:00,63.9,62.4,29.71,NE,55,2.0,0.0,95,0.00,,OVC003,0.00,VWS V14.01,2013-06-11 01:40:00,
2013-06-10 21:43:00,63.9,62.1,29.71,NE,55,2.0,0.0,94,0.00,,OVC003,0.00,VWS V14.01,2013-06-11 01:43:00,
2013-06-10 21:45:00,63.9,62.4,29.72,NE,55,2.0,0.0,95,0.00,,OVC003,0.00,VWS V14.01,2013-06-11 01:45:00,
2013-06-10 21:48:00,63.9,62.4,29.71,NE,55,2.0,0.0,95,0.00,,OVC003,0.00,VWS V14.01,2013-06-11 01:48:00,
2013-06-10 21:50:00,63.9,62.4,29.72,NE,55,2.0,0.0,95,0.00,,OVC003,0.00,VWS V14.01,2013-06-11 01:50:00,
2013-06-10 21:53:00,63.9,62.4,29.72,NE,55,2.0,0.0,95,0.00,,OVC003,0.00,VWS V14.01,2013-06-11 01:53:00,
2013-06-10 21:55:00,63.9,62.4,29.72,NE,55,2.0,0.0,95,0.00,,OVC003,0.00,VWS V14.01,2013-06-11 01:55:00,
2013-06-10 21:58:00,63.9,62.4,29.72,NE,55,2.0,0.0,95,0.00,,OVC003,0.00,VWS V14.01,2013-06-11 01:58:00,
2013-06-10 22:00:00,63.9,62.4,29.72,NE,55,2.0,0.0,95,0.00,,OVC003,0.00,VWS V14.01,2013-06-11 02:00:00,
2013-06-10 22:03:00,63.9,62.4,29.72,NE,55,2.0,0.0,95,0.00,,OVC003,0.00,VWS V14.01,2013-06-11 02:03:00,
2013-06-10 22:05:00,63.9,62.4,29.72,NE,55,2.0,0.0,95,0.00,,OVC003,0.00,VWS V14.01,2013-06-11 02:05:00,
2013-06-10 22:08:00,63.9,62.4,29.72,NE,55,2.0,0.0,95,0.00,,OVC003,0.00,VWS V14.01,2013-06-11 02:08:00,
2013-06-10 22:10:00,63.9,62.4,29.72,NE,55,2.0,0.0,95,0.00,,OVC003,0.00,VWS V14.01,2013-06-11 02:10:00,
2013-06-10 22:13:00,63.9,62.4,29.72,NE,55,2.0,0.0,95,0.00,,OVC003,0.00,VWS V14.01,2013-06-11 02:13:00,
2013-06-10 22:15:00,63.9,62.4,29.72,NE,55,2.0,0.0,95,0.00,,OVC003,0.00,VWS V14.01,2013-06-11 02:15:00,
2013-06-10 22:18:00,63.9,62.4,29.72,NE,55,2.0,0.0,95,0.00,,OVC003,0.00,VWS V14.01,2013-06-11 02:18:00,
2013-06-10 22:20:00,63.9,62.4,29.72,NE,55,2.0,0.0,95,0.00,,OVC003,0.00,VWS V14.01,2013-06-11 02:20:00,
2013-06-10 22:23:00,63.9,62.4,29.72,NE,55,2.0,0.0,95,0.00,,OVC003,0.00,VWS V14.01,2013-06-11 02:23:00,
2013-06-10 22:25:00,63.8,62.3,29.72,NE,55,2.0,0.0,95,0.00,,OVC003,0.00,VWS V14.01,2013-06-11 02:25:00,
2013-06-10 22:28:00,63.8,62.3,29.72,NE,55,2.0,0.0,95,0.00,,OVC003,0.00,VWS V14.01,2013-06-11 02:28:00,
2013-06-10 22:30:00,63.8,62.3,29.73,NE,55,2.0,0.0,95,0.00,,OVC003,0.00,VWS V14.01,2013-06-11 02:30:00,
2013-06-10 22:33:00,63.8,62.3,29.72,NE,55,2.0,0.0,95,0.00,,OVC003,0.00,VWS V14.01,2013-06-11 02:33:00,
2013-06-10 22:35:00,63.8,62.3,29.73,NE,55,2.0,0.0,95,0.00,,OVC003,0.00,VWS V14.01,2013-06-11 02:35:00,
2013-06-10 22:38:00,63.8,62.3,29.73,NE,55,2.0,0.0,95,0.00,,OVC003,0.00,VWS V14.01,2013-06-11 02:38:00,
2013-06-10 22:40:00,63.8,62.3,29.73,NE,55,2.0,0.0,95,0.00,,OVC003,0.00,VWS V14.01,2013-06-11 02:40:00,
2013-06-10 22:43:00,63.8,62.3,29.73,NE,55,2.0,0.0,95,0.00,,OVC003,0.00,VWS V14.01,2013-06-11 02:43:00,
2013-06-10 22:45:00,63.8,62.3,29.73,NE,55,2.0,0.0,95,0.00,,OVC003,0.00,VWS V14.01,2013-06-11 02:45:00,
2013-06-10 22:48:00,63.8,62.3,29.73,NE,55,2.0,0.0,95,0.00,,OVC003,0.00,VWS V14.01,2013-06-11 02:48:00,
2013-06-10 22:50:00,63.8,62.3,29.73,NE,55,2.0,0.0,95,0.00,,OVC003,0.00,VWS V14.01,2013-06-11 02:50:00,
2013-06-10 22:53:00,63.8,62.3,29.73,NE,55,2.0,0.0,95,0.00,,OVC003,0.00,VWS V14.01,2013-06-11 02:53:00,
2013-06-10 22:55:00,63.7,62.2,29.73,NE,55,2.0,0.0,95,0.00,,OVC003,0.00,VWS V14.01,2013-06-11 02:55:00,
2013-06-10 22:58:00,63.8,62.3,29.73,NE,55,2.0,0.0,95,0.00,,OVC003,0.00,VWS V14.01,2013-06-11 02:58:00,
2013-06-10 23:00:00,63.7,62.2,29.73,NE,55,2.0,0.0,95,0.00,,OVC003,0.00,VWS V14.01,2013-06-11 03:00:00,
2013-06-10 23:04:00,63.7,62.2,29.73,NE,55,2.0,0.0,95,0.00,,OVC003,0.00,VWS V14.01,2013-06-11 03:04:00,
2013-06-10 23:05:00,63.7,62.2,29.73,NE,55,2.0,0.0,95,0.00,,OVC003,0.00,VWS V14.01,2013-06-11 03:05:00,
2013-06-10 23:09:00,63.7,62.2,29.73,NE,55,2.0,0.0,95,0.00,,OVC003,0.00,VWS V14.01,2013-06-11 03:09:00,
2013-06-10 23:10:00,63.7,62.2,29.73,NE,55,2.0,0.0,95,0.00,,OVC003,0.00,VWS V14.01,2013-06-11 03:10:00,
2013-06-10 23:14:00,63.7,62.2,29.73,NE,55,2.0,0.0,95,0.00,,OVC003,0.00,VWS V14.01,2013-06-11 03:14:00,
2013-06-10 23:15:00,63.7,62.2,29.73,NE,55,2.0,0.0,95,0.00,,OVC003,0.00,VWS V14.01,2013-06-11 03:15:00,
2013-06-10 23:19:00,63.7,62.2,29.73,NE,55,2.0,0.0,95,0.00,,OVC003,0.00,VWS V14.01,2013-06-11 03:19:00,
2013-06-10 23:20:00,63.7,62.2,29.73,NE,55,2.0,0.0,95,0.00,,OVC003,0.00,VWS V14.01,2013-06-11 03:20:00,
2013-06-10 23:24:00,63.7,62.2,29.73,NE,55,2.0,0.0,95,0.00,,OVC003,0.00,VWS V14.01,2013-06-11 03:24:00,
2013-06-10 23:25:00,63.7,62.2,29.73,NE,55,2.0,0.0,95,0.00,,OVC003,0.00,VWS V14.01,2013-06-11 03:25:00,
2013-06-10 23:29:00,63.7,62.2,29.73,NE,55,2.0,0.0,95,0.00,,OVC003,0.00,VWS V14.01,2013-06-11 03:29:00,
2013-06-10 23:30:00,63.7,62.2,29.73,NE,55,2.0,0.0,95,0.00,,OVC003,0.00,VWS V14.01,2013-06-11 03:30:00,
2013-06-10 23:34:00,63.7,62.2,29.73,NE,55,2.0,0.0,95,0.00,,OVC003,0.00,VWS V14.01,2013-06-11 03:34:00,
2013-06-10 23:35:00,63.6,62.2,29.73,NE,55,2.0,0.0,95,0.00,,OVC003,0.00,VWS V14.01,2013-06-11 03:35:00,
2013-06-10 23:39:00,63.6,62.2,29.73,NE,55,2.0,0.0,95,0.00,,OVC003,0.00,VWS V14.01,2013-06-11 03:39:00,
2013-06-10 23:40:00,63.6,62.2,29.73,NE,55,2.0,0.0,95,0.00,,OVC003,0.00,VWS V14.01,2013-06-11 03:40:00,
2013-06-10 23:44:00,63.6,62.2,29.73,NE,55,2.0,0.0,95,0.00,,OVC003,0.00,VWS V14.01,2013-06-11 03:44:00,
2013-06-10 23:45:00,63.6,62.2,29.73,NE,55,2.0,0.0,95,0.00,,OVC003,0.00,VWS V14.01,2013-06-11 03:45:00,
2013-06-10 23:49:00,63.6,62.2,29.73,NE,55,2.0,0.0,95,0.00,,OVC003,0.00,VWS V14.01,2013-06-11 03:49:00,
2013-06-10 23:50:00,63.5,62.0,29.73,NE,55,2.0,0.0,95,0.00,,OVC003,0.00,VWS V14.01,2013-06-11 03:50:00,
2013-06-10 23:54:00,63.5,62.0,29.73,NE,55,2.0,0.0,95,0.00,,OVC003,0.00,VWS V14.01,2013-06-11 03:54:00,
2013-06-10 23:55:00,63.5,62.0,29.73,NE,55,2.0,0.0,95,0.00,,OVC003,0.00,VWS V14.01,2013-06-11 03:55:00,
2013-06-10 23:59:00,63.5,62.0,29.73,NE,55,2.0,0.0,95,0.00,,OVC003,0.00,VWS V14.01,2013-06-11 03:59:00,